Time,TemperatureF,DewpointF,PressureIn,WindDirection,WindDirectionDegrees,WindSpeedMPH,WindSpeedGustMPH,Humidity,HourlyPrecipIn,Conditions,Clouds,dailyrainin,SoftwareType,DateUTC
2013-01-10 00:02:00,41.0,27.4,29.66,SSW,203,3.4,7.2,58,0.00,,,0.00,WUHU216HW,2013-01-10 07:02:00,
2013-01-10 00:07:00,40.7,27.5,29.65,SSW,203,2.0,4.9,59,0.00,,,0.00,WUHU216HW,2013-01-10 07:07:00,
2013-01-10 00:12:00,40.3,27.1,29.65,ESE,113,0.0,2.9,59,0.00,,,0.00,WUHU216HW,2013-01-10 07:12:00,
2013-01-10 00:17:00,40.0,26.7,29.65,NW,315,1.1,1.8,59,0.00,,,0.00,WUHU216HW,2013-01-10 07:17:00,
2013-01-10 00:22:00,39.8,26.6,29.65,East,90,0.2,1.1,59,0.00,,,0.00,WUHU216HW,2013-01-10 07:22:00,
2013-01-10 00:27:00,39.8,26.6,29.64,ENE,68,0.0,1.1,59,0.00,,,0.00,WUHU216HW,2013-01-10 07:27:00,
2013-01-10 00:32:00,39.6,26.4,29.64,West,270,2.0,2.0,59,0.00,,,0.00,WUHU216HW,2013-01-10 07:32:00,
2013-01-10 00:37:00,40.0,26.7,29.64,NNW,338,2.5,2.7,59,0.00,,,0.00,WUHU216HW,2013-01-10 07:37:00,
2013-01-10 00:42:00,40.0,26.3,29.64,West,270,1.8,2.5,58,0.00,,,0.00,WUHU216HW,2013-01-10 07:42:00,
2013-01-10 00:47:00,40.0,26.3,29.64,SSE,158,0.7,2.2,58,0.00,,,0.00,WUHU216HW,2013-01-10 07:47:00,
2013-01-10 00:52:00,40.0,26.3,29.64,SE,135,0.7,1.6,58,0.00,,,0.00,WUHU216HW,2013-01-10 07:52:00,
2013-01-10 00:57:00,39.6,25.9,29.64,ESE,113,1.6,1.6,58,0.00,,,0.00,WUHU216HW,2013-01-10 07:57:00,
2013-01-10 01:02:00,39.2,26.0,29.64,NE,45,0.0,1.8,59,0.00,,,0.00,WUHU216HW,2013-01-10 08:02:00,
2013-01-10 01:07:00,39.2,26.5,29.63,NNE,23,2.9,4.0,60,0.00,,,0.00,WUHU216HW,2013-01-10 08:07:00,
2013-01-10 01:12:00,38.9,26.1,29.63,NE,45,1.8,4.0,60,0.00,,,0.00,WUHU216HW,2013-01-10 08:12:00,
2013-01-10 01:17:00,38.5,26.2,29.63,NNE,23,1.1,4.0,61,0.00,,,0.00,WUHU216HW,2013-01-10 08:17:00,
2013-01-10 01:22:00,38.3,26.8,29.63,NE,45,2.5,4.0,63,0.00,,,0.00,WUHU216HW,2013-01-10 08:22:00,
2013-01-10 01:27:00,38.5,26.6,29.63,North,0,1.3,2.9,62,0.00,,,0.00,WUHU216HW,2013-01-10 08:27:00,
2013-01-10 01:32:00,38.9,26.9,29.63,NNE,23,1.8,2.9,62,0.00,,,0.00,WUHU216HW,2013-01-10 08:32:00,
2013-01-10 01:37:00,38.9,26.9,29.63,NNE,23,2.5,2.5,62,0.00,,,0.00,WUHU216HW,2013-01-10 08:37:00,
2013-01-10 01:42:00,38.9,26.9,29.63,NNE,23,1.8,2.9,62,0.00,,,0.00,WUHU216HW,2013-01-10 08:42:00,
2013-01-10 01:47:00,38.7,26.7,29.62,NE,45,2.5,3.6,62,0.00,,,0.00,WUHU216HW,2013-01-10 08:47:00,
2013-01-10 01:52:00,38.5,26.6,29.62,NE,45,3.1,3.6,62,0.00,,,0.00,WUHU216HW,2013-01-10 08:52:00,
2013-01-10 01:57:00,38.3,26.8,29.62,NE,45,2.5,3.4,63,0.00,,,0.00,WUHU216HW,2013-01-10 08:57:00,
2013-01-10 02:02:00,38.2,26.7,29.62,NE,45,1.8,3.4,63,0.00,,,0.00,WUHU216HW,2013-01-10 09:02:00,
2013-01-10 02:08:00,38.0,26.5,29.62,NE,45,2.2,3.4,63,0.00,,,0.00,WUHU216HW,2013-01-10 09:08:00,
2013-01-10 02:12:00,38.2,26.7,29.62,NE,45,2.2,4.5,63,0.00,,,0.00,WUHU216HW,2013-01-10 09:12:00,
2013-01-10 02:18:00,38.3,26.8,29.62,North,0,1.8,4.5,63,0.00,,,0.00,WUHU216HW,2013-01-10 09:18:00,
2013-01-10 02:23:00,38.9,26.6,29.62,NNW,338,1.8,2.5,61,0.00,,,0.00,WUHU216HW,2013-01-10 09:23:00,
2013-01-10 02:28:00,39.8,26.6,29.62,WNW,293,1.1,2.5,59,0.00,,,0.00,WUHU216HW,2013-01-10 09:28:00,
2013-01-10 02:33:00,40.3,27.1,29.62,ESE,113,1.1,1.6,59,0.00,,,0.00,WUHU216HW,2013-01-10 09:33:00,
2013-01-10 02:38:00,40.3,27.1,29.61,ESE,113,2.5,2.5,59,0.00,,,0.00,WUHU216HW,2013-01-10 09:38:00,
2013-01-10 02:43:00,40.3,27.1,29.62,SSE,158,4.7,4.7,59,0.00,,,0.00,WUHU216HW,2013-01-10 09:43:00,
2013-01-10 02:48:00,40.3,27.5,29.61,SSE,158,4.9,5.1,60,0.00,,,0.00,WUHU216HW,2013-01-10 09:48:00,
2013-01-10 02:53:00,40.3,27.5,29.61,SSE,158,2.9,5.1,60,0.00,,,0.00,WUHU216HW,2013-01-10 09:53:00,
2013-01-10 02:58:00,40.3,27.1,29.62,NNW,338,3.4,4.9,59,0.00,,,0.00,WUHU216HW,2013-01-10 09:58:00,
2013-01-10 03:03:00,40.5,26.8,29.62,SW,225,1.3,4.3,58,0.00,,,0.00,WUHU216HW,2013-01-10 10:03:00,
2013-01-10 03:08:00,40.7,27.0,29.61,SW,225,3.6,4.3,58,0.00,,,0.00,WUHU216HW,2013-01-10 10:08:00,
2013-01-10 03:13:00,41.0,26.9,29.61,South,180,2.9,3.6,57,0.00,,,0.00,WUHU216HW,2013-01-10 10:13:00,
2013-01-10 03:18:00,41.4,27.3,29.61,SE,135,4.0,4.5,57,0.00,,,0.00,WUHU216HW,2013-01-10 10:18:00,
2013-01-10 03:23:00,41.4,26.8,29.61,ESE,113,2.9,4.7,56,0.00,,,0.00,WUHU216HW,2013-01-10 10:23:00,
2013-01-10 03:28:00,41.6,27.5,29.60,SE,135,2.5,4.7,57,0.00,,,0.00,WUHU216HW,2013-01-10 10:28:00,
2013-01-10 03:33:00,41.4,27.3,29.60,ESE,113,4.7,7.6,57,0.00,,,0.00,WUHU216HW,2013-01-10 10:33:00,
2013-01-10 03:38:00,41.8,27.5,29.60,ESE,113,5.4,7.6,57,0.00,,,0.00,WUHU216HW,2013-01-10 10:38:00,
2013-01-10 03:43:00,42.1,27.9,29.59,ESE,113,8.9,8.9,57,0.00,,,0.00,WUHU216HW,2013-01-10 10:43:00,
2013-01-10 03:48:00,42.3,27.6,29.59,ESE,113,8.3,9.2,56,0.00,,,0.00,WUHU216HW,2013-01-10 10:48:00,
2013-01-10 03:53:00,42.3,27.6,29.59,East,90,7.6,9.8,56,0.00,,,0.00,WUHU216HW,2013-01-10 10:53:00,
2013-01-10 03:58:00,42.3,28.1,29.59,ESE,113,8.9,10.5,57,0.00,,,0.00,WUHU216HW,2013-01-10 10:58:00,
2013-01-10 04:03:00,42.5,27.8,29.59,ENE,68,9.4,10.5,56,0.00,,,0.00,WUHU216HW,2013-01-10 11:03:00,
2013-01-10 04:08:00,42.7,28.0,29.59,SE,135,7.6,9.4,56,0.00,,,0.00,WUHU216HW,2013-01-10 11:08:00,
2013-01-10 04:13:00,42.7,28.0,29.59,SE,135,6.3,8.1,56,0.00,,,0.00,WUHU216HW,2013-01-10 11:13:00,
2013-01-10 04:18:00,42.3,28.1,29.59,SE,135,2.5,6.9,57,0.00,,,0.00,WUHU216HW,2013-01-10 11:18:00,
2013-01-10 04:23:00,42.1,27.9,29.59,SE,135,3.4,6.0,57,0.00,,,0.00,WUHU216HW,2013-01-10 11:23:00,
2013-01-10 04:28:00,41.8,28.0,29.59,SE,135,1.1,6.0,58,0.00,,,0.00,WUHU216HW,2013-01-10 11:28:00,
2013-01-10 04:33:00,41.4,27.7,29.59,SE,135,1.3,3.4,58,0.00,,,0.00,WUHU216HW,2013-01-10 11:33:00,
2013-01-10 04:38:00,41.2,28.0,29.59,SE,135,1.1,2.9,59,0.00,,,0.00,WUHU216HW,2013-01-10 11:38:00,
2013-01-10 04:43:00,41.0,28.3,29.59,SE,135,0.4,4.0,60,0.00,,,0.00,WUHU216HW,2013-01-10 11:43:00,
2013-01-10 04:49:00,40.7,27.9,29.59,East,90,0.0,4.0,60,0.00,,,0.00,WUHU216HW,2013-01-10 11:49:00,
2013-01-10 04:54:00,40.7,28.3,29.59,East,90,1.1,1.8,61,0.00,,,0.00,WUHU216HW,2013-01-10 11:54:00,
2013-01-10 04:59:00,41.0,27.4,29.59,SSW,203,6.3,12.1,58,0.00,,,0.00,WUHU216HW,2013-01-10 11:59:00,
2013-01-10 05:04:00,42.5,27.4,29.59,NNW,338,4.7,12.1,55,0.00,,,0.00,WUHU216HW,2013-01-10 12:04:00,
2013-01-10 05:09:00,42.5,27.8,29.59,NNW,338,3.4,12.1,56,0.00,,,0.00,WUHU216HW,2013-01-10 12:09:00,
2013-01-10 05:14:00,41.9,28.2,29.59,WNW,293,4.0,6.0,58,0.00,,,0.00,WUHU216HW,2013-01-10 12:14:00,
2013-01-10 05:19:00,41.4,27.7,29.59,NNW,338,3.4,5.4,58,0.00,,,0.00,WUHU216HW,2013-01-10 12:19:00,
2013-01-10 05:24:00,41.2,28.5,29.60,South,180,8.5,8.5,60,0.00,,,0.00,WUHU216HW,2013-01-10 12:24:00,
2013-01-10 05:29:00,41.4,29.7,29.60,NW,315,5.1,12.5,63,0.00,,,0.00,WUHU216HW,2013-01-10 12:29:00,
2013-01-10 05:33:00,41.0,29.8,29.60,NNW,338,1.1,12.5,64,0.00,,,0.00,WUHU216HW,2013-01-10 12:33:00,
2013-01-10 05:38:00,40.7,29.4,29.60,NNE,23,2.9,4.5,64,0.00,,,0.00,WUHU216HW,2013-01-10 12:38:00,
2013-01-10 05:43:00,40.3,30.2,29.60,NNW,338,7.4,7.4,67,0.00,,,0.00,WUHU216HW,2013-01-10 12:43:00,
2013-01-10 05:48:00,40.3,30.2,29.60,ENE,68,4.7,7.8,67,0.00,,,0.00,WUHU216HW,2013-01-10 12:48:00,
2013-01-10 05:53:00,40.0,30.3,29.60,SSE,158,0.7,7.8,68,0.00,,,0.00,WUHU216HW,2013-01-10 12:53:00,
2013-01-10 05:58:00,39.6,31.0,29.60,West,270,0.4,4.7,71,0.00,,,0.00,WUHU216HW,2013-01-10 12:58:00,
2013-01-10 06:03:00,39.2,31.2,29.60,NE,45,1.8,4.7,73,0.00,,,0.00,WUHU216HW,2013-01-10 13:03:00,
2013-01-10 06:08:00,38.9,32.0,29.60,North,0,1.1,3.4,76,0.00,,,0.00,WUHU216HW,2013-01-10 13:08:00,
2013-01-10 06:13:00,38.3,32.8,29.60,NNE,23,1.8,3.4,80,0.00,,,0.00,WUHU216HW,2013-01-10 13:13:00,
2013-01-10 06:18:00,37.8,32.2,29.60,North,0,3.1,3.1,80,0.00,,,0.00,WUHU216HW,2013-01-10 13:18:00,
2013-01-10 06:23:00,37.4,30.9,29.60,NNE,23,1.8,3.1,77,0.00,,,0.00,WUHU216HW,2013-01-10 13:23:00,
2013-01-10 06:28:00,37.3,30.7,29.60,NE,45,2.5,3.4,77,0.00,,,0.00,WUHU216HW,2013-01-10 13:28:00,
2013-01-10 06:33:00,37.1,30.9,29.60,ENE,68,2.5,3.8,78,0.00,,,0.00,WUHU216HW,2013-01-10 13:33:00,
2013-01-10 06:38:00,36.7,30.5,29.60,ENE,68,2.0,3.8,78,0.00,,,0.00,WUHU216HW,2013-01-10 13:38:00,
2013-01-10 06:43:00,36.7,30.8,29.60,ENE,68,1.6,2.5,79,0.00,,,0.00,WUHU216HW,2013-01-10 13:43:00,
2013-01-10 06:48:00,36.4,30.4,29.60,NE,45,1.3,2.2,79,0.00,,,0.00,WUHU216HW,2013-01-10 13:48:00,
2013-01-10 06:53:00,36.4,30.4,29.60,NE,45,0.4,1.8,79,0.00,,,0.00,WUHU216HW,2013-01-10 13:53:00,
2013-01-10 06:58:00,36.2,30.6,29.60,NE,45,1.1,1.8,80,0.00,,,0.00,WUHU216HW,2013-01-10 13:58:00,
2013-01-10 07:03:00,36.0,30.4,29.60,NE,45,0.4,1.8,80,0.00,,,0.00,WUHU216HW,2013-01-10 14:03:00,
2013-01-10 07:08:00,36.0,30.4,29.60,NE,45,0.0,0.9,80,0.00,,,0.00,WUHU216HW,2013-01-10 14:08:00,
2013-01-10 07:13:00,36.0,31.0,29.60,West,270,0.9,1.8,82,0.00,,,0.00,WUHU216HW,2013-01-10 14:13:00,
2013-01-10 07:18:00,35.6,30.6,29.60,WNW,293,1.6,1.8,82,0.00,,,0.00,WUHU216HW,2013-01-10 14:18:00,
2013-01-10 07:23:00,35.3,30.2,29.60,WNW,293,0.4,1.8,82,0.00,,,0.00,WUHU216HW,2013-01-10 14:23:00,
2013-01-10 07:28:00,34.9,30.8,29.60,North,0,2.0,2.0,85,0.00,,,0.00,WUHU216HW,2013-01-10 14:28:00,
2013-01-10 07:33:00,34.7,31.5,29.60,North,0,1.3,3.1,88,0.00,,,0.00,WUHU216HW,2013-01-10 14:33:00,
2013-01-10 07:38:00,34.6,31.6,29.60,NNW,338,2.0,3.1,89,0.00,,,0.00,WUHU216HW,2013-01-10 14:38:00,
2013-01-10 07:43:00,34.6,31.6,29.59,NNW,338,1.8,2.0,89,0.00,,,0.00,WUHU216HW,2013-01-10 14:43:00,
2013-01-10 07:48:00,34.6,31.9,29.59,NNW,338,1.3,2.5,90,0.00,,,0.00,WUHU216HW,2013-01-10 14:48:00,
2013-01-10 07:53:00,34.6,32.1,29.60,NNW,338,0.9,2.5,91,0.00,,,0.00,WUHU216HW,2013-01-10 14:53:00,
2013-01-10 07:58:00,34.6,32.4,29.59,North,0,1.3,1.8,92,0.00,,,0.00,WUHU216HW,2013-01-10 14:58:00,
2013-01-10 08:03:00,34.4,32.2,29.59,NNW,338,1.1,1.8,92,0.00,,,0.00,WUHU216HW,2013-01-10 15:03:00,
2013-01-10 08:08:00,34.4,32.2,29.59,North,0,1.3,1.8,92,0.00,,,0.00,WUHU216HW,2013-01-10 15:08:00,
2013-01-10 08:13:00,34.6,32.4,29.59,North,0,2.5,2.7,92,0.00,,,0.00,WUHU216HW,2013-01-10 15:13:00,
2013-01-10 08:18:00,34.4,32.5,29.59,North,0,3.4,3.6,93,0.00,,,0.00,WUHU216HW,2013-01-10 15:18:00,
2013-01-10 08:23:00,34.4,32.2,29.59,North,0,6.5,6.5,92,0.00,,,0.00,WUHU216HW,2013-01-10 15:23:00,
2013-01-10 08:28:00,34.2,32.3,29.59,North,0,5.4,6.5,93,0.00,,,0.00,WUHU216HW,2013-01-10 15:28:00,
2013-01-10 08:33:00,34.4,32.5,29.59,North,0,5.4,6.3,93,0.00,,,0.00,WUHU216HW,2013-01-10 15:33:00,
2013-01-10 08:39:00,34.4,32.5,29.59,North,0,3.8,6.3,93,0.00,,,0.00,WUHU216HW,2013-01-10 15:39:00,
2013-01-10 08:44:00,34.6,32.7,29.59,North,0,4.5,5.1,93,0.00,,,0.00,WUHU216HW,2013-01-10 15:44:00,
2013-01-10 08:48:00,34.7,32.9,29.59,NNE,23,3.6,5.1,93,0.00,,,0.00,WUHU216HW,2013-01-10 15:48:00,
2013-01-10 08:53:00,34.9,33.0,29.59,North,0,2.7,4.7,93,0.00,,,0.00,WUHU216HW,2013-01-10 15:53:00,
2013-01-10 08:58:00,34.9,33.0,29.59,NNE,23,2.7,3.8,93,0.00,,,0.00,WUHU216HW,2013-01-10 15:58:00,
2013-01-10 09:03:00,34.7,32.6,29.59,WNW,293,4.3,6.7,92,0.00,,,0.00,WUHU216HW,2013-01-10 16:03:00,
2013-01-10 09:08:00,34.2,32.0,29.59,NW,315,4.5,6.7,92,0.00,,,0.00,WUHU216HW,2013-01-10 16:08:00,
2013-01-10 09:13:00,34.0,31.6,29.59,NW,315,4.0,6.7,91,0.00,,,0.00,WUHU216HW,2013-01-10 16:13:00,
2013-01-10 09:18:00,33.8,31.7,29.59,NNW,338,2.9,4.7,92,0.00,,,0.00,WUHU216HW,2013-01-10 16:18:00,
2013-01-10 09:23:00,33.7,31.5,29.59,NW,315,2.7,4.3,92,0.00,,,0.00,WUHU216HW,2013-01-10 16:23:00,
2013-01-10 09:28:00,33.7,31.8,29.59,NNW,338,5.4,5.4,93,0.00,,,0.00,WUHU216HW,2013-01-10 16:28:00,
2013-01-10 09:33:00,33.3,31.1,29.59,North,0,4.9,7.4,92,0.00,,,0.00,WUHU216HW,2013-01-10 16:33:00,
2013-01-10 09:38:00,32.8,30.4,29.59,NNW,338,11.4,11.4,91,0.00,,,0.00,WUHU216HW,2013-01-10 16:38:00,
2013-01-10 09:43:00,32.4,30.3,29.59,NNE,23,8.3,11.4,92,0.00,,,0.00,WUHU216HW,2013-01-10 16:43:00,
2013-01-10 09:48:00,32.0,29.8,29.60,North,0,10.5,10.7,91,0.00,,,0.00,WUHU216HW,2013-01-10 16:48:00,
2013-01-10 09:53:00,31.5,29.3,29.60,NNW,338,4.9,10.5,91,0.00,,,0.00,WUHU216HW,2013-01-10 16:53:00,
2013-01-10 09:58:00,31.1,28.9,29.60,North,0,9.2,9.2,91,0.00,,,0.00,WUHU216HW,2013-01-10 16:58:00,
2013-01-10 10:03:00,30.6,28.6,29.60,North,0,9.6,9.8,92,0.00,,,0.00,WUHU216HW,2013-01-10 17:03:00,
2013-01-10 10:09:00,30.4,28.6,29.61,North,0,6.7,9.8,93,0.00,,,0.00,WUHU216HW,2013-01-10 17:09:00,
2013-01-10 10:14:00,30.1,28.3,29.60,North,0,5.8,9.2,93,0.00,,,0.00,WUHU216HW,2013-01-10 17:14:00,
2013-01-10 10:19:00,29.7,27.9,29.61,North,0,8.9,9.2,93,0.00,,,0.00,WUHU216HW,2013-01-10 17:19:00,
2013-01-10 10:24:00,29.5,27.7,29.61,North,0,2.7,8.9,93,0.00,,,0.00,WUHU216HW,2013-01-10 17:24:00,
2013-01-10 10:29:00,29.3,27.5,29.62,North,0,3.1,5.1,93,0.00,,,0.00,WUHU216HW,2013-01-10 17:29:00,
2013-01-10 10:34:00,29.2,27.4,29.62,North,0,4.3,8.3,93,0.00,,,0.00,WUHU216HW,2013-01-10 17:34:00,
2013-01-10 10:38:00,28.8,26.8,29.62,North,0,5.8,8.3,92,0.00,,,0.00,WUHU216HW,2013-01-10 17:38:00,
2013-01-10 10:43:00,28.4,26.5,29.62,North,0,7.6,8.3,92,0.00,,,0.00,WUHU216HW,2013-01-10 17:43:00,
2013-01-10 10:48:00,28.3,26.3,29.62,North,0,6.9,8.9,92,0.00,,,0.00,WUHU216HW,2013-01-10 17:48:00,
2013-01-10 10:53:00,27.9,25.9,29.61,North,0,4.7,9.8,92,0.00,,,0.00,WUHU216HW,2013-01-10 17:53:00,
2013-01-10 10:58:00,27.7,25.8,29.62,North,0,6.3,9.8,92,0.00,,,0.00,WUHU216HW,2013-01-10 17:58:00,
2013-01-10 11:04:00,27.5,25.6,29.61,North,0,5.4,9.8,92,0.00,,,0.00,WUHU216HW,2013-01-10 18:04:00,
2013-01-10 11:09:00,27.4,25.4,29.61,North,0,6.9,9.8,92,0.00,,,0.00,WUHU216HW,2013-01-10 18:09:00,
2013-01-10 11:14:00,27.0,25.0,29.61,North,0,9.6,9.6,92,0.00,,,0.00,WUHU216HW,2013-01-10 18:14:00,
2013-01-10 11:19:00,26.8,24.6,29.61,North,0,6.9,10.5,91,0.00,,,0.00,WUHU216HW,2013-01-10 18:19:00,
2013-01-10 11:24:00,26.6,24.7,29.60,North,0,9.8,10.5,92,0.00,,,0.00,WUHU216HW,2013-01-10 18:24:00,
2013-01-10 11:29:00,26.5,24.5,29.60,North,0,9.4,11.9,92,0.00,,,0.00,WUHU216HW,2013-01-10 18:29:00,
2013-01-10 11:33:00,26.1,23.9,29.60,North,0,8.9,12.1,91,0.00,,,0.00,WUHU216HW,2013-01-10 18:33:00,
2013-01-10 11:39:00,25.9,23.7,29.60,North,0,4.7,12.1,91,0.00,,,0.00,WUHU216HW,2013-01-10 18:39:00,
2013-01-10 11:44:00,25.7,23.5,29.60,North,0,8.9,9.8,91,0.00,,,0.00,WUHU216HW,2013-01-10 18:44:00,
2013-01-10 11:49:00,25.6,23.3,29.60,North,0,7.8,9.8,91,0.00,,,0.00,WUHU216HW,2013-01-10 18:49:00,
2013-01-10 11:54:00,25.4,23.1,29.60,North,0,8.5,12.1,91,0.00,,,0.00,WUHU216HW,2013-01-10 18:54:00,
2013-01-10 11:59:00,25.0,22.8,29.60,North,0,11.6,12.1,91,0.00,,,0.00,WUHU216HW,2013-01-10 18:59:00,
2013-01-10 12:04:00,24.8,22.6,29.59,North,0,7.6,11.6,91,0.00,,,0.00,WUHU216HW,2013-01-10 19:04:00,
2013-01-10 12:09:00,24.8,22.6,29.59,North,0,8.1,9.6,91,0.00,,,0.00,WUHU216HW,2013-01-10 19:09:00,
2013-01-10 12:14:00,24.7,22.4,29.59,North,0,10.3,11.6,91,0.00,,,0.00,WUHU216HW,2013-01-10 19:14:00,
2013-01-10 12:19:00,24.5,22.2,29.60,North,0,7.2,11.6,91,0.00,,,0.00,WUHU216HW,2013-01-10 19:19:00,
2013-01-10 12:24:00,24.3,22.1,29.59,North,0,9.2,15.0,91,0.00,,,0.00,WUHU216HW,2013-01-10 19:24:00,
2013-01-10 12:29:00,24.3,22.3,29.60,North,0,6.7,15.0,92,0.00,,,0.00,WUHU216HW,2013-01-10 19:29:00,
2013-01-10 12:34:00,24.1,22.2,29.60,North,0,7.6,13.4,92,0.00,,,0.00,WUHU216HW,2013-01-10 19:34:00,
2013-01-10 12:39:00,23.9,22.0,29.60,North,0,8.7,13.4,92,0.00,,,0.00,WUHU216HW,2013-01-10 19:39:00,
2013-01-10 12:44:00,23.9,22.0,29.59,North,0,9.2,9.2,92,0.00,,,0.00,WUHU216HW,2013-01-10 19:44:00,
2013-01-10 12:49:00,23.8,21.8,29.59,North,0,7.8,14.3,92,0.00,,,0.00,WUHU216HW,2013-01-10 19:49:00,
2013-01-10 12:54:00,23.6,21.6,29.59,North,0,6.7,14.3,92,0.00,,,0.00,WUHU216HW,2013-01-10 19:54:00,
2013-01-10 12:59:00,23.4,21.4,29.59,North,0,10.3,10.3,92,0.00,,,0.00,WUHU216HW,2013-01-10 19:59:00,
2013-01-10 13:04:00,23.4,21.4,29.60,North,0,5.8,11.4,92,0.00,,,0.00,WUHU216HW,2013-01-10 20:04:00,
2013-01-10 13:09:00,23.2,21.3,29.59,North,0,9.8,11.4,92,0.00,,,0.00,WUHU216HW,2013-01-10 20:09:00,
2013-01-10 13:14:00,23.2,21.3,29.60,North,0,8.3,9.8,92,0.00,,,0.00,WUHU216HW,2013-01-10 20:14:00,
2013-01-10 13:19:00,22.9,20.9,29.60,North,0,10.3,10.7,92,0.00,,,0.00,WUHU216HW,2013-01-10 20:19:00,
2013-01-10 13:24:00,22.7,20.7,29.60,North,0,9.4,12.1,92,0.00,,,0.00,WUHU216HW,2013-01-10 20:24:00,
2013-01-10 13:29:00,22.5,20.5,29.60,North,0,9.8,12.8,92,0.00,,,0.00,WUHU216HW,2013-01-10 20:29:00,
2013-01-10 13:34:00,22.5,20.5,29.61,North,0,6.7,12.8,92,0.00,,,0.00,WUHU216HW,2013-01-10 20:34:00,
2013-01-10 13:39:00,22.3,20.4,29.61,North,0,9.2,11.4,92,0.00,,,0.00,WUHU216HW,2013-01-10 20:39:00,
2013-01-10 13:44:00,22.1,20.2,29.61,North,0,8.5,10.7,92,0.00,,,0.00,WUHU216HW,2013-01-10 20:44:00,
2013-01-10 13:49:00,22.0,20.0,29.61,North,0,9.8,15.0,92,0.00,,,0.00,WUHU216HW,2013-01-10 20:49:00,
2013-01-10 13:54:00,22.0,20.0,29.61,North,0,12.8,15.0,92,0.00,,,0.00,WUHU216HW,2013-01-10 20:54:00,
2013-01-10 13:59:00,21.8,19.8,29.61,North,0,11.0,13.4,92,0.00,,,0.00,WUHU216HW,2013-01-10 20:59:00,
2013-01-10 14:04:00,21.6,19.6,29.62,North,0,11.4,13.4,92,0.00,,,0.00,WUHU216HW,2013-01-10 21:04:00,
2013-01-10 14:09:00,21.4,19.5,29.62,North,0,9.2,12.1,92,0.00,,,0.00,WUHU216HW,2013-01-10 21:09:00,
2013-01-10 14:14:00,21.2,19.3,29.62,North,0,9.4,10.5,92,0.00,,,0.00,WUHU216HW,2013-01-10 21:14:00,
2013-01-10 14:19:00,21.2,19.3,29.62,North,0,7.4,13.6,92,0.00,,,0.00,WUHU216HW,2013-01-10 21:19:00,
2013-01-10 14:24:00,21.2,19.3,29.63,North,0,9.6,13.6,92,0.00,,,0.00,WUHU216HW,2013-01-10 21:24:00,
2013-01-10 14:29:00,21.1,19.1,29.63,North,0,10.5,11.4,92,0.00,,,0.00,WUHU216HW,2013-01-10 21:29:00,
2013-01-10 14:34:00,20.9,18.9,29.63,North,0,10.3,12.1,92,0.00,,,0.00,WUHU216HW,2013-01-10 21:34:00,
2013-01-10 14:39:00,20.9,18.9,29.63,North,0,9.6,12.1,92,0.00,,,0.00,WUHU216HW,2013-01-10 21:39:00,
2013-01-10 14:44:00,20.7,18.7,29.63,North,0,12.1,12.1,92,0.00,,,0.00,WUHU216HW,2013-01-10 21:44:00,
2013-01-10 14:49:00,20.7,18.7,29.63,North,0,13.2,13.2,92,0.00,,,0.00,WUHU216HW,2013-01-10 21:49:00,
2013-01-10 14:54:00,20.7,18.7,29.62,North,0,11.4,13.2,92,0.00,,,0.00,WUHU216HW,2013-01-10 21:54:00,
2013-01-10 14:59:00,20.5,18.6,29.62,North,0,8.5,14.3,92,0.00,,,0.00,WUHU216HW,2013-01-10 21:59:00,
2013-01-10 15:04:00,20.5,18.6,29.63,North,0,11.9,14.3,92,0.00,,,0.00,WUHU216HW,2013-01-10 22:04:00,
2013-01-10 15:09:00,20.5,18.6,29.63,North,0,9.6,11.9,92,0.00,,,0.00,WUHU216HW,2013-01-10 22:09:00,
2013-01-10 15:14:00,20.5,18.6,29.62,North,0,8.9,11.4,92,0.00,,,0.00,WUHU216HW,2013-01-10 22:14:00,
2013-01-10 15:19:00,20.3,18.4,29.63,North,0,7.6,11.4,92,0.00,,,0.00,WUHU216HW,2013-01-10 22:19:00,
2013-01-10 15:24:00,20.3,18.4,29.63,North,0,9.4,11.0,92,0.00,,,0.00,WUHU216HW,2013-01-10 22:24:00,
2013-01-10 15:29:00,20.2,17.9,29.64,North,0,8.5,11.2,91,0.00,,,0.00,WUHU216HW,2013-01-10 22:29:00,
2013-01-10 15:34:00,20.2,17.9,29.64,North,0,8.7,11.2,91,0.00,,,0.00,WUHU216HW,2013-01-10 22:34:00,
2013-01-10 15:39:00,19.8,17.6,29.64,North,0,9.6,12.3,91,0.00,,,0.00,WUHU216HW,2013-01-10 22:39:00,
2013-01-10 15:44:00,19.8,17.6,29.64,North,0,9.4,13.0,91,0.00,,,0.00,WUHU216HW,2013-01-10 22:44:00,
2013-01-10 15:49:00,19.6,17.4,29.65,North,0,12.1,13.0,91,0.00,,,0.00,WUHU216HW,2013-01-10 22:49:00,
2013-01-10 15:54:00,19.6,17.4,29.65,North,0,8.7,12.3,91,0.00,,,0.00,WUHU216HW,2013-01-10 22:54:00,
2013-01-10 15:59:00,19.6,17.4,29.66,North,0,6.9,12.1,91,0.00,,,0.00,WUHU216HW,2013-01-10 22:59:00,
2013-01-10 16:05:00,19.4,17.2,29.66,North,0,6.3,12.1,91,0.00,,,0.00,WUHU216HW,2013-01-10 23:05:00,
2013-01-10 16:10:00,19.3,17.0,29.66,North,0,10.1,12.1,91,0.00,,,0.00,WUHU216HW,2013-01-10 23:10:00,
2013-01-10 16:15:00,19.3,17.0,29.66,North,0,9.2,10.5,91,0.00,,,0.00,WUHU216HW,2013-01-10 23:15:00,
2013-01-10 16:20:00,19.1,16.8,29.67,North,0,6.0,10.5,91,0.00,,,0.00,WUHU216HW,2013-01-10 23:20:00,
2013-01-10 16:25:00,19.1,16.6,29.67,North,0,7.6,12.1,90,0.00,,,0.00,WUHU216HW,2013-01-10 23:25:00,
2013-01-10 16:30:00,18.9,16.4,29.67,North,0,7.6,12.1,90,0.00,,,0.00,WUHU216HW,2013-01-10 23:30:00,
2013-01-10 16:35:00,18.5,16.0,29.67,North,0,12.3,13.0,90,0.00,,,0.00,WUHU216HW,2013-01-10 23:35:00,
2013-01-10 16:40:00,18.4,15.8,29.67,North,0,9.6,13.0,90,0.00,,,0.00,WUHU216HW,2013-01-10 23:40:00,
2013-01-10 16:45:00,18.2,15.7,29.67,North,0,8.1,13.6,90,0.00,,,0.00,WUHU216HW,2013-01-10 23:45:00,
2013-01-10 16:50:00,18.2,15.7,29.68,North,0,7.6,13.6,90,0.00,,,0.00,WUHU216HW,2013-01-10 23:50:00,
2013-01-10 16:55:00,18.0,15.5,29.68,North,0,11.2,13.2,90,0.00,,,0.00,WUHU216HW,2013-01-10 23:55:00,
2013-01-10 17:00:00,17.8,15.3,29.68,North,0,7.6,13.2,90,0.00,,,0.00,WUHU216HW,2013-01-11 00:00:00,
2013-01-10 17:05:00,17.8,15.3,29.68,North,0,12.5,12.8,90,0.00,,,0.00,WUHU216HW,2013-01-11 00:05:00,
2013-01-10 17:10:00,17.6,15.1,29.68,North,0,9.4,12.5,90,0.00,,,0.00,WUHU216HW,2013-01-11 00:10:00,
2013-01-10 17:15:00,17.6,15.1,29.69,North,0,10.5,12.5,90,0.00,,,0.00,WUHU216HW,2013-01-11 00:15:00,
2013-01-10 17:20:00,17.6,15.1,29.69,North,0,14.5,14.5,90,0.00,,,0.00,WUHU216HW,2013-01-11 00:20:00,
2013-01-10 17:25:00,17.6,15.1,29.69,North,0,9.4,16.3,90,0.00,,,0.00,WUHU216HW,2013-01-11 00:25:00,
2013-01-10 17:31:00,17.6,15.1,29.70,North,0,8.5,16.3,90,0.00,,,0.00,WUHU216HW,2013-01-11 00:31:00,
2013-01-10 17:36:00,17.5,14.9,29.70,North,0,11.4,11.4,90,0.00,,,0.00,WUHU216HW,2013-01-11 00:36:00,
2013-01-10 17:41:00,17.5,14.9,29.70,North,0,7.8,12.8,90,0.00,,,0.00,WUHU216HW,2013-01-11 00:41:00,
2013-01-10 17:46:00,17.5,14.9,29.70,North,0,7.2,12.8,90,0.00,,,0.00,WUHU216HW,2013-01-11 00:46:00,
2013-01-10 17:51:00,17.3,14.8,29.70,North,0,9.8,9.8,90,0.00,,,0.00,WUHU216HW,2013-01-11 00:51:00,
2013-01-10 17:56:00,17.3,14.8,29.71,North,0,6.7,12.5,90,0.00,,,0.00,WUHU216HW,2013-01-11 00:56:00,
2013-01-10 18:01:00,17.1,14.6,29.71,North,0,5.8,12.5,90,0.00,,,0.00,WUHU216HW,2013-01-11 01:01:00,
2013-01-10 18:06:00,17.1,14.6,29.71,North,0,7.6,12.8,90,0.00,,,0.00,WUHU216HW,2013-01-11 01:06:00,
2013-01-10 18:11:00,17.1,14.6,29.71,North,0,10.5,12.8,90,0.00,,,0.00,WUHU216HW,2013-01-11 01:11:00,
2013-01-10 18:16:00,16.9,14.4,29.71,North,0,9.2,11.2,90,0.00,,,0.00,WUHU216HW,2013-01-11 01:16:00,
2013-01-10 18:21:00,16.9,14.4,29.71,North,0,8.1,11.2,90,0.00,,,0.00,WUHU216HW,2013-01-11 01:21:00,
2013-01-10 18:26:00,16.9,14.4,29.71,North,0,10.1,10.1,90,0.00,,,0.00,WUHU216HW,2013-01-11 01:26:00,
2013-01-10 18:31:00,16.9,14.4,29.71,North,0,7.8,12.5,90,0.00,,,0.00,WUHU216HW,2013-01-11 01:31:00,
2013-01-10 18:36:00,16.7,14.2,29.71,North,0,8.9,12.5,90,0.00,,,0.00,WUHU216HW,2013-01-11 01:36:00,
2013-01-10 18:41:00,16.6,14.0,29.71,North,0,11.4,11.4,90,0.00,,,0.00,WUHU216HW,2013-01-11 01:41:00,
2013-01-10 18:46:00,16.4,13.6,29.72,North,0,11.4,11.4,89,0.00,,,0.00,WUHU216HW,2013-01-11 01:46:00,
2013-01-10 18:51:00,16.4,13.6,29.72,North,0,11.4,11.4,89,0.00,,,0.00,WUHU216HW,2013-01-11 01:51:00,
2013-01-10 18:56:00,16.2,13.4,29.72,North,0,8.3,11.4,89,0.00,,,0.00,WUHU216HW,2013-01-11 01:56:00,
2013-01-10 19:01:00,16.2,13.4,29.72,North,0,7.4,9.6,89,0.00,,,0.00,WUHU216HW,2013-01-11 02:01:00,
2013-01-10 19:06:00,16.2,13.4,29.72,North,0,5.8,9.6,89,0.00,,,0.00,WUHU216HW,2013-01-11 02:06:00,
2013-01-10 19:11:00,16.0,13.2,29.72,North,0,6.3,11.4,89,0.00,,,0.00,WUHU216HW,2013-01-11 02:11:00,
2013-01-10 19:16:00,16.0,13.2,29.72,North,0,9.2,11.4,89,0.00,,,0.00,WUHU216HW,2013-01-11 02:16:00,
2013-01-10 19:21:00,15.8,13.1,29.73,North,0,6.0,14.1,89,0.00,,,0.00,WUHU216HW,2013-01-11 02:21:00,
2013-01-10 19:26:00,15.8,13.1,29.73,North,0,6.9,14.1,89,0.00,,,0.00,WUHU216HW,2013-01-11 02:26:00,
2013-01-10 19:31:00,15.8,13.1,29.73,North,0,8.9,10.1,89,0.00,,,0.00,WUHU216HW,2013-01-11 02:31:00,
2013-01-10 19:36:00,15.8,13.1,29.73,North,0,9.4,10.1,89,0.00,,,0.00,WUHU216HW,2013-01-11 02:36:00,
2013-01-10 19:41:00,15.7,12.9,29.72,North,0,11.4,11.9,89,0.00,,,0.00,WUHU216HW,2013-01-11 02:41:00,
2013-01-10 19:46:00,15.5,12.8,29.72,North,0,8.9,11.9,89,0.00,,,0.00,WUHU216HW,2013-01-11 02:46:00,
2013-01-10 19:52:00,15.3,12.6,29.73,North,0,14.1,14.1,89,0.00,,,0.00,WUHU216HW,2013-01-11 02:52:00,
2013-01-10 19:57:00,15.1,12.4,29.73,North,0,8.5,14.1,89,0.00,,,0.00,WUHU216HW,2013-01-11 02:57:00,
2013-01-10 20:02:00,15.1,12.2,29.73,North,0,10.5,12.3,88,0.00,,,0.00,WUHU216HW,2013-01-11 03:02:00,
2013-01-10 20:07:00,14.9,12.0,29.73,North,0,11.4,13.4,88,0.00,,,0.00,WUHU216HW,2013-01-11 03:07:00,
2013-01-10 20:12:00,14.9,12.0,29.73,North,0,7.6,13.4,88,0.00,,,0.00,WUHU216HW,2013-01-11 03:12:00,
2013-01-10 20:17:00,14.8,11.8,29.73,North,0,8.1,13.4,88,0.00,,,0.00,WUHU216HW,2013-01-11 03:17:00,
2013-01-10 20:22:00,14.8,11.8,29.73,North,0,9.8,13.4,88,0.00,,,0.00,WUHU216HW,2013-01-11 03:22:00,
2013-01-10 20:27:00,14.8,11.5,29.73,North,0,13.0,13.4,87,0.00,,,0.00,WUHU216HW,2013-01-11 03:27:00,
2013-01-10 20:32:00,14.8,11.5,29.73,North,0,8.9,13.4,87,0.00,,,0.00,WUHU216HW,2013-01-11 03:32:00,
2013-01-10 20:37:00,14.6,11.2,29.73,North,0,9.6,15.4,86,0.00,,,0.00,WUHU216HW,2013-01-11 03:37:00,
2013-01-10 20:42:00,14.6,11.2,29.74,North,0,11.4,15.4,86,0.00,,,0.00,WUHU216HW,2013-01-11 03:42:00,
2013-01-10 20:47:00,14.6,11.2,29.74,North,0,8.5,14.3,86,0.00,,,0.00,WUHU216HW,2013-01-11 03:47:00,
2013-01-10 20:52:00,14.6,11.2,29.74,North,0,8.5,10.5,86,0.00,,,0.00,WUHU216HW,2013-01-11 03:52:00,
2013-01-10 20:57:00,14.4,11.0,29.75,North,0,11.4,11.4,86,0.00,,,0.00,WUHU216HW,2013-01-11 03:57:00,
2013-01-10 21:02:00,14.4,11.0,29.75,North,0,10.5,14.5,86,0.00,,,0.00,WUHU216HW,2013-01-11 04:02:00,
2013-01-10 21:07:00,14.2,10.8,29.75,North,0,11.0,14.5,86,0.00,,,0.00,WUHU216HW,2013-01-11 04:07:00,
2013-01-10 21:12:00,14.0,10.6,29.75,North,0,14.5,14.8,86,0.00,,,0.00,WUHU216HW,2013-01-11 04:12:00,
2013-01-10 21:17:00,14.0,10.6,29.75,North,0,8.5,14.8,86,0.00,,,0.00,WUHU216HW,2013-01-11 04:17:00,
2013-01-10 21:22:00,14.0,10.6,29.75,North,0,6.9,12.8,86,0.00,,,0.00,WUHU216HW,2013-01-11 04:22:00,
2013-01-10 21:27:00,14.0,10.6,29.75,North,0,10.1,10.1,86,0.00,,,0.00,WUHU216HW,2013-01-11 04:27:00,
2013-01-10 21:33:00,14.0,10.6,29.75,North,0,10.5,14.1,86,0.00,,,0.00,WUHU216HW,2013-01-11 04:33:00,
2013-01-10 21:38:00,13.9,10.2,29.75,North,0,6.3,14.1,85,0.00,,,0.00,WUHU216HW,2013-01-11 04:38:00,
2013-01-10 21:43:00,13.9,10.4,29.75,North,0,6.5,9.2,86,0.00,,,0.00,WUHU216HW,2013-01-11 04:43:00,
2013-01-10 21:48:00,13.7,10.0,29.75,North,0,7.6,9.2,85,0.00,,,0.00,WUHU216HW,2013-01-11 04:48:00,
2013-01-10 21:53:00,13.7,10.0,29.75,North,0,11.2,11.2,85,0.00,,,0.00,WUHU216HW,2013-01-11 04:53:00,
2013-01-10 21:58:00,13.5,9.8,29.74,North,0,12.3,12.3,85,0.00,,,0.00,WUHU216HW,2013-01-11 04:58:00,
2013-01-10 22:00:00,13.5,9.8,29.74,North,0,13.2,13.2,85,0.00,,,0.00,WUHU216HW,2013-01-11 05:00:00,
2013-01-10 22:01:00,13.5,9.8,29.74,North,0,13.2,13.2,85,0.00,,,0.00,WUHU216HW,2013-01-11 05:01:00,
2013-01-10 22:03:00,13.5,9.8,29.75,North,0,10.3,13.2,85,0.00,,,0.00,WUHU216HW,2013-01-11 05:03:00,
2013-01-10 22:08:00,13.3,9.4,29.74,North,0,7.8,13.2,84,0.00,,,0.00,WUHU216HW,2013-01-11 05:08:00,
2013-01-10 22:13:00,13.3,9.4,29.75,North,0,11.0,12.8,84,0.00,,,0.00,WUHU216HW,2013-01-11 05:13:00,
2013-01-10 22:18:00,13.1,8.9,29.75,North,0,7.6,12.8,83,0.00,,,0.00,WUHU216HW,2013-01-11 05:18:00,
2013-01-10 22:23:00,13.1,8.9,29.75,North,0,4.5,10.3,83,0.00,,,0.00,WUHU216HW,2013-01-11 05:23:00,
2013-01-10 22:28:00,13.1,8.9,29.75,North,0,11.2,11.2,83,0.00,,,0.00,WUHU216HW,2013-01-11 05:28:00,
2013-01-10 22:33:00,13.0,8.7,29.75,North,0,11.4,11.4,83,0.00,,,0.00,WUHU216HW,2013-01-11 05:33:00,
2013-01-10 22:38:00,13.0,8.7,29.75,North,0,8.9,11.4,83,0.00,,,0.00,WUHU216HW,2013-01-11 05:38:00,
2013-01-10 22:43:00,13.0,8.5,29.75,North,0,10.1,11.9,82,0.00,,,0.00,WUHU216HW,2013-01-11 05:43:00,
2013-01-10 22:48:00,12.8,8.3,29.75,North,0,11.6,11.9,82,0.00,,,0.00,WUHU216HW,2013-01-11 05:48:00,
2013-01-10 22:53:00,12.8,8.3,29.75,North,0,10.1,11.6,82,0.00,,,0.00,WUHU216HW,2013-01-11 05:53:00,
2013-01-10 22:58:00,12.6,8.1,29.75,North,0,7.4,11.4,82,0.00,,,0.00,WUHU216HW,2013-01-11 05:58:00,
2013-01-10 23:03:00,12.6,8.1,29.76,North,0,12.1,12.1,82,0.00,,,0.00,WUHU216HW,2013-01-11 06:03:00,
2013-01-10 23:08:00,12.6,8.1,29.76,North,0,9.8,12.1,82,0.00,,,0.00,WUHU216HW,2013-01-11 06:08:00,
2013-01-10 23:13:00,12.4,7.7,29.76,North,0,13.0,13.9,81,0.00,,,0.00,WUHU216HW,2013-01-11 06:13:00,
2013-01-10 23:18:00,12.4,7.7,29.77,North,0,11.6,13.9,81,0.00,,,0.00,WUHU216HW,2013-01-11 06:18:00,
2013-01-10 23:23:00,12.4,7.7,29.77,North,0,6.9,12.5,81,0.00,,,0.00,WUHU216HW,2013-01-11 06:23:00,
2013-01-10 23:28:00,12.2,7.7,29.77,North,0,9.8,13.2,82,0.00,,,0.00,WUHU216HW,2013-01-11 06:28:00,
2013-01-10 23:33:00,12.2,7.7,29.77,North,0,8.1,13.2,82,0.00,,,0.00,WUHU216HW,2013-01-11 06:33:00,
2013-01-10 23:38:00,12.1,7.6,29.77,North,0,9.2,13.0,82,0.00,,,0.00,WUHU216HW,2013-01-11 06:38:00,
2013-01-10 23:43:00,12.1,7.3,29.77,North,0,9.4,10.5,81,0.00,,,0.00,WUHU216HW,2013-01-11 06:43:00,
2013-01-10 23:48:00,11.9,7.4,29.77,North,0,8.9,10.5,82,0.00,,,0.00,WUHU216HW,2013-01-11 06:48:00,
2013-01-10 23:53:00,11.9,7.1,29.77,North,0,9.4,11.9,81,0.00,,,0.00,WUHU216HW,2013-01-11 06:53:00,
2013-01-10 23:58:00,11.9,7.1,29.77,North,0,8.1,11.9,81,0.00,,,0.00,WUHU216HW,2013-01-11 06:58:00,